Temp
2 3 4 5 4 3 2 3 3 4 4 3 4 4 5 5 5 6 6 6 6 6 6 6 6 6 6 6 6 5 5 5 5 5 5 5 5 5 5 4 4 3 4 3
1 2 4 2 2 2 1 2 2 3 3 2 3 4 6 6 6 7 6 6 6 5 6 6 6 6 5 5 4 4 4 4 5 5 5 5 5 4 4 4 4 3 3 3
2 2 2 2 2 1 1 1 1 1 1 1 1 3 5 6 6 7 7 6 6 6 6 6 6 5 4 3 3 4 4 4 4 5 5 5 4 4 4 3 3 3 3 3
0 1 2 2 1 1 1 0 0 0 0 0 0 -0 4 5 6 7 7 7 7 6 6 6 5 4 3 3 3 4 4 4 4 4 4 4 4 3 3 3 3 3 2 2
1 1 1 1 1 0 0 0 0 -0 -0 -0 -0 -0 3 5 6 6 6 7 7 6 5 4 4 3 3 3 3 3 3 3 4 3 3 3 2 2 2 2 2 2 2 1
-1 -0 -1 0 1 -0 -1 -1 -1 -1 -1 -3 -0 1 2 4 6 6 6 6 6 5 4 4 3 3 3 2 3 3 3 3 2 2 2 1 1 1 1 1 1 1 1 1
-2 -2 -1 -1 -1 -2 -2 -1 -2 -4 -3 -5 -1 -2 1 3 4 5 5 4 4 4 3 3 3 2 2 2 2 2 2 2 1 1 1 1 1 1 1 1 0 0 0 0
-4 -3 -2 -2 -1 -1 -2 -1 -1 -5 -5 -4 -2 -1 2 3 4 4 4 3 3 3 2 2 1 1 1 1 1 1 1 1 1 1 1 1 1 1 0 -0 -0 -0 -1 -1
-3 -2 -1 -2 -1 -1 -2 -2 -1 -2 -3 -4 -1 0 2 3 3 3 3 3 3 2 1 1 1 1 1 0 0 0 -0 -0 -0 -0 -0 0 -0 -0 -0 -0 -1 -1 -1 -1
-1 -1 -1 -2 -2 -2 -2 -2 -3 -3 -6 -7 -3 -1 2 2 2 2 2 2 1 1 1 1 0 0 -0 -1 -1 -1 -1 -1 -1 -1 -1 -0 -1 -1 -1 -1 -1 -2 -2 -2
-3 -2 -3 -3 -3 -3 -3 -3 -2 -2 -2 -5 -5 -1 -0 1 2 2 1 0 -0 -0 -0 -1 -1 -1 -1 -1 -1 -1 -1 -1 -1 -1 -1 -1 -1 -1 -2 -2 -2 -2 -3 -3
-3 -3 -4 -3 -2 -3 -3 -2 -2 -2 -3 -2 -2 -1 -0 0 1 1 0 0 -0 -1 -1 -2 -2 -2 -2 -2 -2 -2 -2 -2 -2 -2 -2 -2 -2 -2 -2 -3 -3 -3 -3 -3
-4 -3 -4 -4 -4 -3 -3 -3 -3 -2 -2 -2 -3 -1 -0 -0 -1 -1 -1 -1 -1 -2 -2 -2 -2 -1 -1 -1 -1 -2 -2 -3 -3 -3 -2 -2 -3 -3 -3 -3 -4 -4 -4 -4
-4 -3 -3 -2 -2 -2 -3 -3 -3 -3 -3 -3 -2 -2 -1 -1 -1 -1 -1 -2 -2 -2 -2 -2 -1 -1 -1 -1 -1 -1 -2 -2 -3 -3 -3 -3 -4 -4 -4 -4 -4 -4 -4 -4
-4 -4 -4 -3 -2 -3 -2 -3 -3 -3 -2 -3 -2 -2 -2 -2 -2 -2 -3 -4 -3 -2 -2 -1 -1 -1 -1 -1 -2 -2 -3 -3 -4 -4 -4 -4 -4 -4 -4 -4 -4 -5 -5 -5
-5 -4 -4 -4 -4 -5 -3 -3 -3 -2 -3 -3 -4 -3 -2 -2 -3 -4 -3 -3 -2 -2 -1 -1 -1 -1 -2 -2 -3 -3 -3 -4 -4 -4 -4 -4 -4 -4 -4 -4 -5 -5 -5 -6
-5 -5 -5 -5 -5 -4 -4 -3 -3 -2 -2 -2 -3 -2 -2 -2 -2 -2 -3 -3 -2 -2 -2 -2 -2 -2 -3 -3 -3 -4 -4 -4 -4 -4 -5 -4 -4 -4 -4 -5 -5 -6 -7 -7
-4 -5 -5 -6 -6 -8 -4 -4 -3 -3 -3 -3 -3 -2 -2 -2 -2 -3 -3 -2 -2 -2 -2 -2 -3 -3 -4 -4 -4 -4 -5 -5 -5 -5 -5 -5 -5 -5 -6 -6 -7 -8 -8 -8
-4 -4 -6 -5 -6 -4 -4 -4 -3 -3 -2 -2 -2 -2 -2 -3 -3 -2 -2 -2 -3 -3 -3 -3 -4 -4 -4 -5 -5 -5 -6 -6 -6 -6 -6 -6 -6 -6 -6 -7 -7 -7 -7 -8
-4 -5 -4 -5 -5 -10 -3 -3 -3 -3 -3 -2 -2 -2 -2 -3 -3 -2 -3 -3 -4 -4 -4 -4 -5 -5 -5 -5 -6 -6 -6 -6 -6 -6 -6 -6 -6 -6 -6 -7 -7 -8 -8 -9
-5 -5 -5 -5 -5 -4 -4 -4 -4 -5 -2 -1 -2 -3 -3 -3 -2 -3 -3 -4 -4 -5 -5 -5 -5 -5 -5 -6 -6 -6 -6 -6 -6 -6 -6 -6 -6 -6 -7 -8 -8 -8 -10 -10
-5 -6 -6 -6 -6 -6 -4 -4 -4 -1 -2 -3 -3 -2 -3 -3 -4 -4 -5 -5 -6 -6 -6 -6 -6 -6 -6 -6 -6 -6 -6 -6 -6 -7 -7 -7 -7 -7 -8 -8 -10 -10 -10 -11
-5 -4 -5 -5 -4 -2 -4 -3 -3 -4 -3 -3 -3 -3 -4 -5 -5 -5 -5 -6 -6 -6 -7 -7 -7 -7 -7 -7 -7 -7 -7 -7 -7 -7 -7 -7 -7 -8 -9 -10 -10 -11 -11 -11
-5 -4 -5 -5 -3 -3 -3 -3 -4 -4 -3 -3 -4 -5 -6 -6 -6 -7 -7 -8 -7 -7 -7 -8 -8 -7 -7 -8 -8 -8 -7 -8 -8 -8 -8 -8 -8 -9 -10 -10 -11 -12 -11 -11
-5 -5 -4 -5 -4 -4 -4 -4 -3 -3 -3 -4 -6 -6 -7 -8 -8 -8 -8 -8 -7 -8 -9 -9 -8 -8 -8 -8 -8 -8 -8 -8 -8 -8 -8 -9 -10 -10 -10 -11 -11 -11 -11 -12
-5 -5 -5 -4 -3 -4 -3 -3 -4 -5 -5 -6 -7 -7 -7 -7 -8 -8 -7 -7 -8 -9 -9 -9 -9 -9 -8 -8 -8 -8 -8 -8 -9 -9 -9 -10 -10 -10 -11 -12 -11 -11 -12 -12
Height
3109 3111 3111 3119 3121 3123 3125 3127 3128 3128 3129 3130 3131 3130 3132 3135 3134 3136 3137 3139 3141 3141 3143 3144 3146 3147 3147 3147 3147 3147 3146 3146 3145 3145 3143 3141 3141 3140 3140 3139 3138 3138 3136 3135
3106 3106 3112 3116 3118 3121 3123 3124 3126 3125 3125 3125 3125 3123 3124 3126 3127 3131 3134 3134 3135 3135 3138 3140 3141 3141 3142 3142 3142 3142 3142 3141 3141 3140 3139 3137 3136 3135 3135 3133 3132 3131 3130 3129
3102 3105 3107 3111 3114 3117 3120 3122 3124 3125 3123 3123 3121 3117 3118 3120 3120 3123 3125 3128 3129 3130 3132 3134 3135 3136 3136 3137 3137 3138 3137 3137 3137 3136 3134 3133 3132 3130 3129 3128 3127 3125 3124 3123
3100 3101 3103 3106 3110 3114 3116 3120 3122 3123 3124 3123 3121 3115 3114 3114 3114 3115 3117 3120 3123 3124 3127 3129 3130 3131 3132 3132 3133 3133 3134 3133 3133 3130 3129 3128 3127 3125 3124 3123 3122 3120 3119 3119
3096 3097 3099 3101 3106 3111 3114 3118 3120 3122 3122 3120 3118 3120 3105 3109 3108 3111 3114 3115 3117 3119 3122 3124 3125 3126 3127 3128 3129 3130 3129 3129 3128 3126 3124 3123 3123 3122 3120 3119 3118 3117 3116 3115
3093 3095 3098 3101 3105 3109 3112 3115 3118 3120 3120 3116 3111 3116 3101 3104 3105 3107 3109 3111 3113 3115 3118 3120 3121 3122 3124 3125 3126 3126 3125 3124 3124 3122 3120 3119 3118 3118 3117 3115 3114 3114 3113 3112
3088 3092 3093 3097 3102 3106 3109 3113 3117 3121 3119 3112 3108 3110 3098 3101 3102 3104 3106 3108 3111 3113 3115 3116 3118 3120 3122 3123 3122 3122 3121 3120 3120 3119 3117 3116 3115 3114 3113 3111 3110 3110 3109 3108
3082 3088 3088 3092 3095 3097 3103 3108 3108 3114 3113 3108 3107 3101 3096 3097 3100 3102 3103 3105 3108 3111 3113 3115 3116 3117 3118 3119 3119 3119 3117 3117 3116 3115 3114 3113 3111 3109 3108 3107 3106 3104 3104 3103
3077 3081 3083 3088 3092 3096 3100 3103 3108 3107 3108 3107 3102 3098 3097 3097 3098 3100 3103 3105 3107 3109 3111 3112 3112 3113 3114 3116 3115 3115 3113 3113 3112 3111 3110 3108 3106 3104 3104 3102 3100 3099 3098 3097
3074 3078 3079 3083 3088 3092 3094 3102 3105 3106 3110 3111 3097 3096 3093 3094 3096 3098 3102 3104 3105 3106 3108 3109 3109 3110 3110 3111 3111 3109 3109 3109 3108 3106 3105 3102 3100 3098 3097 3096 3094 3093 3092 3091
3072 3073 3077 3080 3080 3084 3091 3093 3098 3100 3100 3099 3100 3093 3091 3091 3093 3096 3098 3100 3102 3104 3105 3106 3107 3107 3107 3107 3106 3105 3104 3103 3101 3099 3098 3095 3093 3091 3090 3088 3088 3087 3086 3085
3067 3071 3072 3074 3077 3081 3085 3086 3089 3091 3095 3096 3096 3093 3090 3090 3091 3092 3095 3098 3100 3102 3103 3104 3103 3103 3102 3101 3099 3098 3098 3096 3094 3092 3090 3088 3086 3084 3083 3081 3081 3080 3079 3078
3061 3066 3070 3074 3077 3077 3077 3082 3086 3088 3089 3088 3093 3089 3089 3089 3090 3091 3094 3096 3098 3099 3098 3097 3097 3097 3096 3094 3092 3090 3089 3087 3085 3084 3083 3081 3079 3077 3076 3074 3073 3073 3072 3070
3058 3059 3061 3063 3065 3069 3071 3075 3079 3082 3081 3081 3083 3086 3088 3088 3088 3090 3092 3093 3093 3092 3091 3091 3091 3089 3087 3086 3084 3082 3081 3079 3077 3075 3074 3072 3071 3069 3068 3067 3066 3065 3063 3062
3054 3055 3058 3061 3063 3066 3066 3067 3071 3070 3073 3075 3078 3081 3085 3086 3087 3087 3087 3087 3087 3086 3086 3085 3083 3082 3081 3079 3076 3074 3072 3070 3069 3068 3067 3065 3063 3062 3060 3059 3058 3056 3054 3053
3048 3051 3054 3057 3060 3062 3063 3064 3065 3065 3068 3069 3072 3072 3078 3081 3081 3081 3082 3081 3081 3081 3080 3078 3076 3074 3071 3069 3067 3065 3064 3062 3061 3060 3059 3057 3056 3054 3052 3049 3048 3047 3045 3043
3042 3046 3051 3053 3055 3057 3054 3054 3057 3058 3061 3066 3064 3066 3073 3074 3074 3074 3073 3073 3073 3072 3071 3069 3067 3066 3064 3062 3060 3058 3056 3054 3053 3052 3051 3049 3046 3044 3042 3039 3038 3036 3033 3032
3038 3044 3049 3051 3053 3053 3046 3048 3051 3053 3057 3059 3059 3061 3065 3066 3066 3065 3065 3065 3064 3063 3062 3061 3059 3057 3055 3054 3052 3050 3048 3046 3044 3043 3041 3039 3036 3033 3031 3029 3027 3026 3024 3021
3035 3039 3044 3049 3047 3044 3042 3043 3047 3047 3049 3051 3052 3054 3057 3058 3058 3057 3058 3056 3055 3054 3053 3052 3050 3049 3047 3045 3043 3041 3038 3037 3036 3034 3032 3030 3028 3025 3023 3021 3018 3016 3015 3015
3032 3036 3041 3042 3043 3041 3034 3038 3042 3044 3036 3045 3045 3048 3050 3050 3047 3049 3050 3047 3046 3045 3044 3043 3042 3039 3037 3035 3033 3032 3030 3029 3026 3024 3023 3021 3019 3016 3013 3010 3008 3007 3005 3005
3024 3029 3031 3035 3036 3029 3029 3031 3036 3038 3034 3037 3039 3041 3042 3040 3041 3038 3038 3038 3037 3035 3034 3032 3031 3029 3027 3025 3023 3021 3020 3019 3017 3015 3013 3011 3009 3006 3003 3001 2998 2998 2997 2997
3014 3022 3024 3029 3033 3024 3018 3023 3024 3025 3027 3029 3031 3032 3032 3031 3030 3028 3027 3027 3026 3024 3022 3021 3019 3017 3015 3014 3012 3011 3008 3007 3006 3004 3002 3001 2999 2996 2994 2992 2990 2990 2991 2992
3009 3008 3012 3015 3008 3008 3008 3012 3015 3018 3020 3022 3022 3022 3022 3021 3020 3019 3017 3016 3015 3013 3011 3009 3007 3005 3004 3004 3001 3000 2997 2996 2994 2993 2992 2991 2989 2986 2985 2984 2984 2986 2988 2989
2999 3001 3005 3007 2999 3002 3004 3006 3008 3011 3012 3012 3012 3011 3011 3010 3010 3009 3007 3006 3003 3001 2999 2996 2994 2993 2993 2992 2991 2989 2987 2985 2984 2984 2982 2981 2979 2978 2978 2979 2980 2982 2984 2984
2992 2995 2992 2993 2992 2995 2997 2999 3002 3001 3001 3000 3001 3001 3000 2998 2997 2997 2994 2993 2991 2988 2986 2984 2983 2982 2981 2980 2979 2977 2976 2975 2975 2974 2972 2971 2971 2973 2974 2976 2978 2979 2978 2978
2979 2981 2983 2979 2986 2988 2989 2991 2991 2990 2990 2989 2989 2988 2988 2986 2984 2983 2982 2980 2977 2974 2972 2970 2969 2968 2968 2967 2966 2966 2965 2965 2965 2964 2963 2964 2966 2968 2969 2972 2973 2974 2973 2974
Wind_Speed
27 27 27 23 22 25 18 18 19 20 19 21 21 27 31 29 38 32 37 39 31 33 32 30 28 24 23 23 23 22 22 23 21 22 22 24 25 26 27 28 28 29 29 28
26 27 23 21 21 21 21 17 17 16 17 20 23 29 28 29 34 34 32 30 31 33 29 27 26 25 24 24 21 21 22 19 19 20 22 25 26 26 26 27 27 27 27 27
26 17 25 23 24 24 23 19 14 13 12 16 21 30 29 25 26 29 32 29 31 31 30 29 27 26 23 21 20 19 18 18 19 21 23 23 24 25 26 26 25 26 24 23
20 23 15 25 25 23 26 23 16 16 11 7 10 9 13 8 11 19 24 27 28 30 29 27 25 20 17 16 16 16 17 19 21 23 24 25 24 24 23 23 23 21 19 18
15 22 25 23 26 22 20 16 18 18 19 22 23 12 13 12 17 22 16 14 15 21 23 20 15 13 13 14 14 17 18 19 20 19 18 17 16 17 18 19 20 19 18 17
17 14 21 21 18 19 14 15 11 11 11 7 21 18 8 14 14 16 14 22 16 14 12 10 8 8 10 13 16 16 16 18 16 15 14 14 14 15 15 16 17 17 18 18
24 19 21 17 20 18 19 14 4 2 3 6 3 12 22 9 10 14 14 13 12 11 7 5 7 10 12 12 13 14 14 14 14 14 15 15 15 17 18 19 20 20 21 21
21 13 25 22 28 24 26 23 7 7 4 3 7 9 4 15 15 13 14 11 10 10 6 6 8 12 14 12 13 14 15 13 14 15 16 17 19 21 22 22 22 23 23 23
24 18 23 17 24 26 25 27 16 1 2 2 6 9 5 15 17 14 11 8 8 7 7 8 12 13 15 17 15 14 12 13 15 18 20 21 22 23 24 24 25 25 25 25
14 9 18 26 24 27 19 24 13 9 1 4 4 7 10 13 21 17 11 8 8 11 11 13 14 13 12 12 11 13 16 21 23 24 25 26 25 24 24 25 26 27 27 26
14 16 14 30 27 29 28 23 18 12 10 4 1 3 7 13 19 15 9 10 12 12 11 12 10 7 8 11 17 22 25 27 29 29 29 28 27 26 25 26 27 28 29 29
26 18 11 31 29 30 31 30 34 12 6 11 2 4 11 10 10 14 14 14 12 10 8 8 10 13 17 21 25 27 29 31 32 32 31 30 30 29 27 26 28 28 29 30
33 16 10 8 25 29 33 34 30 33 19 19 8 5 20 14 11 14 15 14 12 10 16 22 23 24 27 31 34 35 35 34 33 32 30 29 29 28 27 27 28 28 29 31
35 23 22 15 13 30 37 38 37 32 26 21 21 8 15 15 11 10 16 13 20 24 26 28 29 32 35 37 39 40 40 39 37 33 30 29 29 28 27 27 28 30 32 33
33 29 26 22 19 10 26 40 39 41 41 25 25 28 23 16 13 17 26 26 29 33 34 34 36 36 38 38 37 36 36 36 34 30 28 28 28 30 31 31 30 32 34 36
33 18 27 26 30 22 22 22 29 35 38 40 36 36 38 37 34 26 22 26 29 31 33 35 36 38 37 37 39 38 36 35 33 32 32 33 33 33 33 35 36 37 37 38
36 34 18 10 24 27 29 34 31 29 30 31 37 36 27 24 22 23 24 25 27 27 27 29 31 31 32 33 35 37 38 39 39 40 39 38 38 37 37 38 37 38 39 40
26 28 14 5 9 4 19 19 26 34 32 29 29 27 25 22 21 21 24 28 27 28 30 30 29 30 31 32 32 33 34 35 35 36 36 36 37 39 39 40 40 38 40 40
24 30 11 8 21 13 12 19 20 21 22 22 22 22 21 20 23 24 23 28 28 30 31 31 31 30 31 32 34 32 31 31 33 31 29 30 32 34 37 39 38 39 39 38
26 26 26 19 7 8 16 17 23 23 33 23 26 25 21 22 29 26 24 29 30 32 34 34 33 32 32 32 32 34 33 33 34 35 34 34 33 33 33 32 36 38 35 32
34 33 35 26 16 19 20 13 12 22 25 10 13 15 21 27 29 33 34 33 34 35 38 40 39 38 37 35 35 33 34 37 38 36 36 37 35 34 33 33 30 33 28 26
37 28 30 30 18 23 25 20 28 27 21 16 18 23 28 31 32 37 38 37 39 42 45 44 42 40 41 41 38 35 33 35 35 36 37 38 36 37 33 29 23 22 18 19
37 39 37 33 44 30 24 23 17 18 29 29 32 33 35 37 39 38 40 44 50 51 49 49 46 44 43 40 38 36 34 35 35 35 35 34 36 33 27 20 15 13 14 15
37 33 41 36 46 46 44 42 37 33 34 36 38 38 40 43 41 45 45 48 52 51 50 47 43 44 44 42 39 37 34 32 33 33 33 33 31 23 17 12 11 13 15 11
36 38 45 44 47 44 40 38 38 39 40 41 40 41 42 42 44 47 50 48 48 48 45 46 47 48 46 42 40 37 34 34 33 33 33 29 19 14 11 11 15 13 9 11
39 41 42 48 41 36 32 36 41 39 38 38 37 40 43 44 46 49 51 51 51 48 49 50 50 49 46 44 42 38 35 32 32 32 26 18 15 13 12 15 12 10 12 16
Wind_Direction
214 217 220 229 229 230 244 243 244 249 251 255 255 252 246 244 248 246 242 244 246 246 248 250 256 258 265 271 276 281 284 288 290 287 284 282 282 282 282 281 282 283 285 284
216 222 225 225 227 228 239 246 244 245 249 251 257 258 253 244 246 252 249 247 246 250 250 250 254 260 264 269 274 277 284 287 285 283 281 281 282 280 280 281 282 282 281 280
220 226 220 220 221 223 226 234 236 242 240 248 263 274 269 263 256 249 249 246 240 242 248 252 256 259 266 273 273 277 281 285 285 284 282 281 280 281 281 281 281 280 280 279
227 220 220 219 222 222 228 232 234 243 255 255 272 289 259 259 248 246 245 244 240 241 246 252 261 266 267 265 271 276 281 287 287 284 283 281 281 282 283 285 284 285 287 286
216 218 219 213 219 219 227 238 244 255 260 268 261 272 290 269 254 249 244 222 222 230 236 242 242 244 255 267 273 281 287 282 280 281 285 288 289 284 284 286 287 287 286 284
220 218 217 226 215 215 222 229 239 245 251 266 255 240 249 260 254 242 241 235 225 217 208 222 230 243 253 267 280 285 285 287 288 291 294 294 293 292 291 290 289 288 285 281
211 213 210 210 198 203 218 205 147 257 219 233 151 216 244 229 225 223 213 223 218 203 194 205 242 239 256 278 285 285 288 296 302 305 305 303 300 295 291 287 284 283 282 281
192 208 202 203 204 201 205 199 183 200 198 265 220 237 276 212 199 202 205 190 195 190 219 248 247 254 267 275 279 281 283 292 300 307 312 317 318 307 295 288 285 283 283 283
201 207 199 200 207 206 205 211 225 229 255 313 228 262 228 208 203 196 190 191 204 219 233 253 263 263 264 271 269 270 281 291 298 307 311 313 312 307 300 293 287 284 283 282
217 192 198 200 202 211 216 210 206 213 173 248 257 251 221 207 212 212 216 197 213 223 240 253 256 255 249 246 265 291 300 308 309 312 312 311 309 304 294 285 282 280 279 278
214 207 189 198 204 203 204 207 212 205 220 186 244 254 203 209 209 212 212 193 205 223 226 232 236 236 246 275 295 304 308 309 309 312 310 309 305 299 293 284 279 278 277 276
203 211 195 201 213 212 221 219 208 195 191 223 232 236 179 184 196 200 187 198 199 196 218 257 275 286 296 302 304 301 302 303 306 306 307 304 300 295 291 285 278 277 276 276
199 210 189 213 220 220 219 220 221 220 229 229 189 236 199 185 179 172 184 199 213 257 288 291 291 296 297 296 295 297 299 300 301 301 300 293 289 290 288 288 278 277 277 276
208 219 212 221 232 223 217 220 222 223 225 227 222 209 205 218 228 234 238 233 297 298 289 293 293 290 291 291 292 292 292 293 296 295 289 287 286 284 284 282 280 277 278 279
211 217 215 223 224 245 232 221 219 222 226 223 238 239 232 227 227 251 263 268 278 283 288 288 286 286 285 283 284 284 284 285 286 287 286 288 289 285 282 281 282 281 280 279
209 218 232 239 233 240 240 229 229 236 242 249 248 247 257 264 274 276 266 266 270 272 278 281 282 281 281 280 277 278 282 285 280 286 290 288 289 288 287 282 279 279 281 282
209 214 220 223 215 228 243 232 233 236 243 248 250 257 268 257 250 264 269 265 272 278 286 291 291 290 290 288 284 282 282 283 282 285 287 288 289 288 283 281 280 279 278 280
212 212 200 211 184 251 242 232 237 243 246 249 256 261 262 261 260 259 264 274 277 283 291 295 295 296 294 292 288 288 288 288 288 288 289 288 287 285 283 281 282 283 284 281
216 203 184 204 206 258 225 219 217 225 258 257 254 261 263 259 263 263 272 274 277 280 285 286 287 287 289 291 291 290 287 284 280 281 289 290 291 293 290 288 289 286 284 282
208 214 217 210 211 221 263 254 248 251 255 253 259 269 270 262 256 279 283 272 272 280 283 285 286 289 290 289 288 282 280 283 288 284 286 290 293 292 288 290 289 286 282 280
203 209 215 218 224 253 240 227 179 212 260 277 273 259 258 259 278 278 279 272 273 282 287 287 287 286 287 291 288 288 283 279 283 282 281 285 286 293 287 289 285 285 280 280
202 197 211 217 228 256 242 224 222 272 282 274 278 280 279 280 273 276 277 269 275 286 288 288 289 288 287 289 288 287 285 280 281 280 281 286 291 293 286 284 280 279 279 271
212 216 214 215 226 236 251 255 260 267 280 287 286 282 278 278 280 276 270 270 277 285 289 289 289 288 287 288 288 287 287 283 276 278 285 285 290 287 276 274 270 266 257 253
224 227 228 231 246 248 257 263 267 277 278 278 279 275 276 280 277 275 277 280 285 287 287 283 279 280 283 285 290 286 285 278 273 278 284 288 285 273 263 252 243 241 243 264
239 237 237 240 253 254 256 262 274 273 275 277 276 277 279 280 277 278 278 280 282 281 277 274 277 277 279 284 286 282 280 274 276 280 285 283 264 242 230 233 232 246 262 278
238 241 242 252 266 270 274 271 270 271 270 269 272 275 276 275 275 276 277 277 277 275 276 279 280 280 279 280 282 280 276 271 275 277 274 246 224 215 214 228 239 257 272 282